This is the latest recevied weather packets stored in our database for station/object HB9TVK-13. If no packets are shown the sender has not sent any weather packets the latest 10 day(s).
| Time | Temp. | Humidity | Pressure | Rain* | Wind** | Luminosity | Snow |
|---|---|---|---|---|---|---|---|
| 1777620438 | 10° C | 48% | 1026 hPa | 0 mm | - | - | - |
| 1777619838 | 10° C | 48% | 1025.9 hPa | 0 mm | - | - | - |
| 1777619235 | 8.89° C | 49% | 1025.8 hPa | 0 mm | - | - | - |
| 1777618636 | 8.89° C | 48% | 1025.9 hPa | 0 mm | - | - | - |
| 1777618036 | 7.78° C | 50% | 1025.8 hPa | 0 mm | - | - | - |
| 1777617437 | 7.78° C | 50% | 1025.8 hPa | 0 mm | - | - | - |
| 1777616837 | 7.22° C | 50% | 1025.6 hPa | 0 mm | - | - | - |
| 1777616237 | 7.22° C | 50% | 1025.7 hPa | 0 mm | - | - | - |
| 1777615638 | 7.22° C | 50% | 1025.6 hPa | 0 mm | - | - | - |
| 1777615035 | 6.67° C | 50% | 1025.5 hPa | 0 mm | - | - | - |
| 1777614436 | 6.67° C | 51% | 1025.6 hPa | 0 mm | - | - | - |
| 1777613836 | 6.67° C | 50% | 1025.3 hPa | 0 mm | - | - | - |
| 1777613236 | 6.11° C | 51% | 1025.3 hPa | 0 mm | - | - | - |
| 1777612637 | 6.11° C | 50% | 1025.1 hPa | 0 mm | - | - | - |
| 1777612037 | 6.11° C | 51% | 1025 hPa | 0 mm | - | - | - |
| 1777611437 | 6.11° C | 51% | 1025 hPa | 0 mm | - | - | - |
| 1777610836 | 6.11° C | 50% | 1024.9 hPa | 0 mm | - | - | - |
| 1777610236 | 5.56° C | 50% | 1024.9 hPa | 0 mm | - | - | - |
| 1777609636 | 5.56° C | 50% | 1024.7 hPa | 0 mm | - | - | - |
| 1777609037 | 5.56° C | 50% | 1024.8 hPa | 0 mm | - | - | - |
| 1777608437 | 6.11° C | 50% | 1024.8 hPa | 0 mm | - | - | - |
| 1777607837 | 6.11° C | 49% | 1024.7 hPa | 0 mm | - | - | - |
| 1777607238 | 6.11° C | 49% | 1024.6 hPa | 0 mm | - | - | - |
| 1777606635 | 6.11° C | 49% | 1024.6 hPa | 0 mm | - | - | - |
| 1777606036 | 6.11° C | 49% | 1024.6 hPa | 0 mm | - | - | - |
* Rain latest hour (hover to see other rain measurements)
** Current wind speed in m/s (hover to see current wind gust speed)